Location: *
(58.7167°N, 26.1833°E)
Time: 11:09:18
(UTC+00:00)

COSMOS 2428 - Pass Details

Date: 25 August 2019
Orbit: 846 x 856 km, 70.9° (Epoch: 23 September)

Event Time Altitude Azimuth Distance (km) Brightness Sun altitude
Rises 20:02:35 0° 317° (NW) 3,426 7.6 -15.5°
Reaches altitude 10° 20:05:10 10° 324° (NW) 2,487 6.5 -15.7°
Maximum altitude 20:10:38 45° 36° (NE) 1,156 3.6 -16.1°
Enters shadow 20:15:04 15° 105° (ESE) 2,130 4.4 -16.4°
